Regional Weather Roundup
Issued by NWS

Home | Current Version | Previous Version | Graphics & Text | Print | Product List | Glossary On
Versions: 1 2 3 4 5 6 7 8 9 10 11 12 13 14 15 16 17 18 19 20 21 22 23 24 25 26 27 28 29 30 31 32 33 34 35 36 37 38 39 40 41 42 43 44 45 46 47 48 49 50
000
ASUS45 KBOI 192210
RWRID

IDAHO REGIONAL WEATHER ROUNDUP
NATIONAL WEATHER SERVICE BOISE ID
400 PM MDT SAT AUG 19 2017

NOTE: "FAIR" INDICATES FEW OR NO CLOUDS BELOW 12000 FEET
WITH NO SIGNIFICANT WEATHER AND/OR OBSTRUCTIONS TO VISIBILITY

IDZ012-014-192300-
SOUTHWEST IDAHO


CITY           SKY/WX    TMP DP  RH WIND       PRES   REMARKS
BOISE          SUNNY     86  38  18 W10       29.98F
CALDWELL       SUNNY     85  40  20 W8        29.97F
MOUNTAIN HOME  SUNNY     89  38  16 N16       29.96F
$$

IDZ016-017-192300-
SOUTHCENTRAL IDAHO


CITY           SKY/WX    TMP DP  RH WIND       PRES   REMARKS
BURLEY         SUNNY     84  38  19 W8        30.01F
JEROME         SUNNY     86  36  16 W10       30.02F
TWIN FALLS     SUNNY     85  35  16 NW7       30.03F
$$

IDZ019>023-192300-
SOUTHEAST IDAHO


CITY           SKY/WX    TMP DP  RH WIND       PRES   REMARKS
IDAHO FALLS    SUNNY     88  33  14 S18       30.03F
POCATELLO      SUNNY     90  27  10 W16       30.03F
REXBURG        SUNNY     84  30  14 S8        30.04F
$$

IDZ006-010-011-018-031-032-192300-
CENTRAL IDAHO MOUNTAINS


CITY           SKY/WX    TMP DP  RH WIND       PRES   REMARKS
MCCALL         SUNNY     79  26  14 SW13      30.09S
HAILEY         MOSUNNY   82  34  17 S15G26    30.08F
STANLEY          N/A     79  27  14 VRB6G16   30.16F
SALMON         SUNNY     85  39  19 N6        29.94F
CHALLIS        MOSUNNY   86  25  11 W13G29    30.01F
$$

IDZ002-004-006-007-026-192300-
NORTHERN IDAHO


CITY           SKY/WX    TMP DP  RH WIND       PRES   REMARKS
LEWISTON       MOSUNNY   82  42  24 NW12      30.04F
LOWELL           N/A     85  45  24 VRB5      30.00F
COEUR D`ALENE  SUNNY     78  41  26 W9        30.05F
MULLAN PASS    MOSUNNY   61  37  41 VRB7      30.18S
$$



USA.gov is the U.S. government's official web portal to all federal, state and local government web resources and services.